When you browse on this site, cookies collect data to enhance your experience and personalize the content and advertising you see.
Visit our Privacy Policy to learn more. By continuing to use the site, you agree to this use of cookies and data.
  • En España
  • Lista de países
  • Para 7 días
  • Temperatura del agua
  • El tiempo en el mapa
  • Informadores
  • user-avatar
    Iniciar sesión

    Tiempo cada hora Melbourne

    Hoy, 3 Junio, Miércoles

    Tiempo Temperatura Precipitaciones Viento Presión Humedad
    00:00 +11°C° 0.2 mm 6 mps 764 mmHg 73%
    01:00 +11°C° 0.2 mm 6 mps 764 mmHg 72%
    02:00 +10°C° 0.1 mm 6 mps 765 mmHg 71%
    03:00 +10°C° 0.1 mm 6 mps 766 mmHg 71%
    04:00 +10°C° 0 mm 6 mps 766 mmHg 71%
    05:00 +10°C° 0 mm 6 mps 767 mmHg 71%
    06:00 +10°C° 0 mm 6 mps 767 mmHg 70%
    07:00 +10°C° 0 mm 5 mps 768 mmHg 69%
    08:00 +10°C° 0 mm 5 mps 769 mmHg 68%
    09:00 +10°C° 0 mm 5 mps 770 mmHg 66%
    10:00 +12°C° 0 mm 5 mps 770 mmHg 66%
    11:00 +12°C° 0 mm 5 mps 770 mmHg 64%
    12:00 +12°C° 0 mm 5 mps 770 mmHg 62%
    13:00 +13°C° 0 mm 5 mps 770 mmHg 60%
    14:00 +12°C° 0 mm 5 mps 770 mmHg 61%
    15:00 +12°C° 0 mm 5 mps 771 mmHg 63%
    16:00 +12°C° 0 mm 5 mps 771 mmHg 64%
    17:00 +11°C° 0 mm 4 mps 771 mmHg 65%
    18:00 +11°C° 0 mm 4 mps 772 mmHg 66%
    19:00 +11°C° 0 mm 3 mps 772 mmHg 67%
    20:00 +11°C° 0 mm 3 mps 773 mmHg 68%
    21:00 +10°C° 0 mm 3 mps 773 mmHg 68%
    22:00 +10°C° 0 mm 3 mps 774 mmHg 69%
    23:00 +10°C° 0 mm 3 mps 773 mmHg 70%

    Mañana, 4 Junio, Jueves

    Tiempo Temperatura Precipitaciones Viento Presión Humedad
    00:00 +10°C° 0 mm 2 mps 773 mmHg 71%
    01:00 +10°C° 0 mm 2 mps 773 mmHg 72%
    02:00 +10°C° 0 mm 2 mps 773 mmHg 73%
    03:00 +9°C° 0 mm 2 mps 773 mmHg 73%
    04:00 +10°C° 0 mm 1 mps 773 mmHg 74%
    05:00 +10°C° 0 mm 1 mps 774 mmHg 76%
    06:00 +9°C° 0 mm 1 mps 774 mmHg 79%
    07:00 +8°C° 0 mm 1 mps 774 mmHg 82%
    08:00 +10°C° 0 mm 1 mps 774 mmHg 77%
    09:00 +11°C° 0 mm 1 mps 774 mmHg 72%
    10:00 +12°C° 0 mm 1 mps 774 mmHg 68%
    11:00 +13°C° 0 mm 1 mps 774 mmHg 63%
    12:00 +14°C° 0 mm 1 mps 773 mmHg 59%
    13:00 +15°C° 0 mm 1 mps 773 mmHg 54%
    14:00 +15°C° 0 mm 1 mps 772 mmHg 56%
    15:00 +14°C° 0 mm 1 mps 772 mmHg 57%
    16:00 +14°C° 0 mm 1 mps 772 mmHg 59%
    17:00 +13°C° 0 mm 1 mps 772 mmHg 64%
    18:00 +10°C° 0 mm 0 mps 772 mmHg 70%
    19:00 +9°C° 0 mm 0 mps 772 mmHg 75%
    20:00 +9°C° 0 mm 0 mps 772 mmHg 77%
    21:00 +9°C° 0 mm 1 mps 772 mmHg 79%
    22:00 +9°C° 0 mm 1 mps 773 mmHg 80%
    23:00 +9°C° 0 mm 1 mps 772 mmHg 80%

    Pasado mañana, 5 Junio, Viernes

    Tiempo Temperatura Precipitaciones Viento Presión Humedad
    00:00 +8°C° 0 mm 1 mps 772 mmHg 80%
    01:00 +8°C° 0 mm 1 mps 772 mmHg 80%
    02:00 +8°C° 0 mm 1 mps 771 mmHg 79%
    03:00 +8°C° 0 mm 1 mps 771 mmHg 78%
    04:00 +7°C° 0 mm 2 mps 771 mmHg 78%
    05:00 +7°C° 0 mm 2 mps 771 mmHg 78%
    06:00 +7°C° 0 mm 2 mps 771 mmHg 77%
    07:00 +7°C° 0 mm 2 mps 771 mmHg 77%
    08:00 +8°C° 0 mm 2 mps 771 mmHg 73%
    09:00 +10°C° 0 mm 1 mps 771 mmHg 68%
    10:00 +11°C° 0 mm 1 mps 771 mmHg 63%
    11:00 +12°C° 0 mm 1 mps 771 mmHg 58%
    12:00 +13°C° 0 mm 1 mps 770 mmHg 53%
    13:00 +15°C° 0 mm 1 mps 770 mmHg 48%
    14:00 +14°C° 0 mm 2 mps 770 mmHg 51%
    15:00 +14°C° 0 mm 2 mps 769 mmHg 54%
    16:00 +13°C° 0 mm 2 mps 769 mmHg 56%
    17:00 +12°C° 0 mm 2 mps 769 mmHg 63%
    18:00 +10°C° 0 mm 2 mps 769 mmHg 69%
    19:00 +10°C° 0 mm 1 mps 770 mmHg 75%
    20:00 +9°C° 0 mm 1 mps 770 mmHg 77%
    21:00 +9°C° 0 mm 1 mps 770 mmHg 78%
    22:00 +9°C° 0 mm 1 mps 770 mmHg 79%
    23:00 +8°C° 0 mm 1 mps 769 mmHg 80%

    6 Junio, Sábado

    Tiempo Temperatura Precipitaciones Viento Presión Humedad
    00:00 +8°C° 0 mm 1 mps 769 mmHg 80%
    01:00 +8°C° 0 mm 1 mps 769 mmHg 81%
    02:00 +8°C° 0 mm 1 mps 769 mmHg 81%
    03:00 +8°C° 0 mm 1 mps 768 mmHg 82%
    04:00 +8°C° 0 mm 1 mps 768 mmHg 83%
    05:00 +8°C° 0 mm 1 mps 768 mmHg 83%
    06:00 +8°C° 0 mm 1 mps 768 mmHg 84%
    07:00 +8°C° 0 mm 1 mps 769 mmHg 85%
    08:00 +9°C° 0 mm 1 mps 768 mmHg 82%
    09:00 +10°C° 0 mm 1 mps 768 mmHg 78%
    10:00 +11°C° 0 mm 1 mps 768 mmHg 75%
    11:00 +11°C° 0 mm 1 mps 768 mmHg 78%
    12:00 +10°C° 0 mm 2 mps 768 mmHg 81%
    13:00 +10°C° 0 mm 2 mps 767 mmHg 83%
    14:00 +10°C° 0.1 mm 2 mps 767 mmHg 84%
    15:00 +10°C° 0.1 mm 2 mps 767 mmHg 84%
    16:00 +10°C° 0.1 mm 3 mps 767 mmHg 85%
    17:00 +10°C° 0 mm 3 mps 767 mmHg 82%
    18:00 +10°C° 0 mm 3 mps 767 mmHg 80%
    19:00 +9°C° 0 mm 3 mps 768 mmHg 78%
    20:00 +9°C° 0 mm 3 mps 768 mmHg 76%
    21:00 +9°C° 0 mm 3 mps 768 mmHg 75%
    22:00 +9°C° 0 mm 3 mps 768 mmHg 73%
    23:00 +8°C° 0 mm 3 mps 768 mmHg 73%

    7 Junio, Domingo

    Tiempo Temperatura Precipitaciones Viento Presión Humedad
    00:00 +8°C° 0 mm 3 mps 768 mmHg 73%
    01:00 +8°C° 0 mm 3 mps 768 mmHg 74%
    02:00 +8°C° 0.1 mm 3 mps 768 mmHg 74%
    03:00 +8°C° 0.1 mm 3 mps 768 mmHg 74%
    04:00 +8°C° 0.1 mm 3 mps 768 mmHg 74%
    05:00 +8°C° 0.1 mm 3 mps 768 mmHg 74%
    06:00 +8°C° 0.1 mm 3 mps 768 mmHg 75%
    07:00 +8°C° 0.1 mm 3 mps 769 mmHg 76%
    08:00 +9°C° 0.1 mm 3 mps 769 mmHg 72%
    09:00 +9°C° 0.1 mm 3 mps 769 mmHg 69%
    10:00 +10°C° 0.1 mm 3 mps 769 mmHg 66%
    11:00 +10°C° 0 mm 3 mps 769 mmHg 62%
    12:00 +11°C° 0 mm 3 mps 769 mmHg 59%
    13:00 +12°C° 0 mm 4 mps 769 mmHg 55%
    14:00 +12°C° 0 mm 4 mps 769 mmHg 56%
    15:00 +11°C° 0 mm 4 mps 769 mmHg 57%
    16:00 +11°C° 0 mm 4 mps 768 mmHg 58%
    17:00 +10°C° 0 mm 3 mps 769 mmHg 64%
    18:00 +9°C° 0 mm 3 mps 770 mmHg 69%
    19:00 +8°C° 0 mm 3 mps 770 mmHg 75%
    20:00 +8°C° 0 mm 2 mps 770 mmHg 77%
    21:00 +7°C° 0 mm 2 mps 771 mmHg 80%
    22:00 +7°C° 0 mm 2 mps 771 mmHg 83%
    23:00 +8°C° 0 mm 1 mps 771 mmHg 81%

    8 Junio, Lunes

    Tiempo Temperatura Precipitaciones Viento Presión Humedad
    00:00 +8°C° 0 mm 1 mps 771 mmHg 80%
    01:00 +8°C° 0 mm 1 mps 771 mmHg 78%
    02:00 +8°C° 0 mm 1 mps 771 mmHg 78%
    03:00 +8°C° 0 mm 1 mps 771 mmHg 78%
    04:00 +7°C° 0 mm 2 mps 771 mmHg 78%
    05:00 +7°C° 0 mm 2 mps 771 mmHg 79%
    06:00 +8°C° 0 mm 1 mps 772 mmHg 80%
    07:00 +7°C° 0 mm 1 mps 772 mmHg 81%
    08:00 +8°C° 0 mm 1 mps 772 mmHg 78%
    09:00 +9°C° 0 mm 1 mps 772 mmHg 74%
    10:00 +10°C° 0 mm 1 mps 773 mmHg 71%
    11:00 +11°C° 0 mm 1 mps 772 mmHg 70%
    12:00 +11°C° 0 mm 1 mps 772 mmHg 68%
    13:00 +12°C° 0 mm 1 mps 772 mmHg 67%
    14:00 +12°C° 0 mm 1 mps 772 mmHg 67%
    15:00 +12°C° 0 mm 1 mps 772 mmHg 68%
    16:00 +12°C° 0 mm 1 mps 772 mmHg 68%
    17:00 +11°C° 0 mm 1 mps 772 mmHg 72%
    18:00 +10°C° 0 mm 1 mps 772 mmHg 76%
    19:00 +8°C° 0 mm 0 mps 773 mmHg 79%
    20:00 +9°C° 0 mm 1 mps 773 mmHg 81%
    21:00 +8°C° 0 mm 1 mps 773 mmHg 83%
    22:00 +8°C° 0 mm 1 mps 773 mmHg 85%
    23:00 +8°C° 0 mm 1 mps 773 mmHg 85%
    Mostrar más